Time,TemperatureF,DewpointF,PressureIn,WindDirection,WindDirectionDegrees,WindSpeedMPH,WindSpeedGustMPH,Humidity,HourlyPrecipIn,Conditions,Clouds,dailyrainin,SoftwareType,DateUTC
2013-02-17 00:12:00,25.8,13.0,29.98,WSW,240,3.0,10.0,59,0.00,,,0.02,weatherlink.com 1.10,2013-02-17 05:12:00,
2013-02-17 00:27:00,25.5,13.0,29.97,WNW,286,5.0,12.0,60,0.00,,,0.02,weatherlink.com 1.10,2013-02-17 05:27:00,
2013-02-17 00:42:00,25.3,14.0,29.97,WSW,248,6.0,11.0,62,0.00,,,0.02,weatherlink.com 1.10,2013-02-17 05:42:00,
2013-02-17 00:57:00,25.0,12.0,29.96,SW,229,5.0,12.0,59,0.00,,,0.02,weatherlink.com 1.10,2013-02-17 05:57:00,
2013-02-17 01:12:00,24.7,12.0,29.96,West,272,6.0,14.0,59,0.00,,,0.02,weatherlink.com 1.10,2013-02-17 06:12:00,
2013-02-17 01:27:00,24.4,12.0,29.95,South,170,11.0,15.0,59,0.00,,,0.02,weatherlink.com 1.10,2013-02-17 06:27:00,
2013-02-17 01:42:00,24.3,11.0,29.94,SSW,197,7.0,10.0,58,0.00,,,0.02,weatherlink.com 1.10,2013-02-17 06:42:00,
2013-02-17 01:57:00,24.0,11.0,29.94,West,280,6.0,14.0,58,0.00,,,0.02,weatherlink.com 1.10,2013-02-17 06:57:00,
2013-02-17 02:12:00,23.9,11.0,29.95,WSW,256,5.0,11.0,59,0.00,,,0.02,weatherlink.com 1.10,2013-02-17 07:12:00,
2013-02-17 02:27:00,23.7,11.0,29.96,West,266,4.0,12.0,58,0.00,,,0.02,weatherlink.com 1.10,2013-02-17 07:27:00,
2013-02-17 02:42:00,23.6,9.0,29.95,SSW,213,7.0,13.0,55,0.00,,,0.02,weatherlink.com 1.10,2013-02-17 07:42:00,
2013-02-17 02:57:00,23.4,10.0,29.94,WNW,285,3.0,9.0,56,0.00,,,0.02,weatherlink.com 1.10,2013-02-17 07:57:00,
2013-02-17 03:12:00,23.2,9.0,29.92,West,266,2.0,8.0,56,0.00,,,0.02,weatherlink.com 1.10,2013-02-17 08:12:00,
2013-02-17 03:27:00,23.0,10.0,29.92,WNW,290,5.0,9.0,57,0.00,,,0.02,weatherlink.com 1.10,2013-02-17 08:27:00,
2013-02-17 03:42:00,22.8,10.0,29.92,WSW,246,2.0,9.0,59,0.00,,,0.02,weatherlink.com 1.10,2013-02-17 08:42:00,
2013-02-17 03:57:00,22.6,11.0,29.92,West,278,5.0,8.0,61,0.00,,,0.02,weatherlink.com 1.10,2013-02-17 08:57:00,
2013-02-17 04:12:00,22.4,11.0,29.93,WNW,303,4.0,8.0,61,0.00,,,0.02,weatherlink.com 1.10,2013-02-17 09:12:00,
2013-02-17 04:27:00,22.3,11.0,29.93,WNW,296,3.0,9.0,62,0.00,,,0.02,weatherlink.com 1.10,2013-02-17 09:27:00,
2013-02-17 04:42:00,22.1,10.0,29.93,West,277,5.0,12.0,59,0.00,,,0.02,weatherlink.com 1.10,2013-02-17 09:42:00,
2013-02-17 04:57:00,21.9,10.0,29.92,WSW,246,6.0,9.0,60,0.00,,,0.02,weatherlink.com 1.10,2013-02-17 09:57:00,
2013-02-17 05:12:00,21.8,10.0,29.91,SW,214,5.0,9.0,60,0.00,,,0.02,weatherlink.com 1.10,2013-02-17 10:12:00,
2013-02-17 05:27:00,21.6,10.0,29.90,SW,227,8.0,11.0,60,0.00,,,0.02,weatherlink.com 1.10,2013-02-17 10:27:00,
2013-02-17 05:42:00,21.5,9.0,29.91,SW,221,4.0,14.0,59,0.00,,,0.02,weatherlink.com 1.10,2013-02-17 10:42:00,
2013-02-17 05:57:00,21.4,9.0,29.91,SW,214,2.0,9.0,60,0.00,,,0.02,weatherlink.com 1.10,2013-02-17 10:57:00,
2013-02-17 06:13:00,21.3,9.0,29.89,SSW,212,2.0,11.0,60,0.00,,,0.02,weatherlink.com 1.10,2013-02-17 11:13:00,
2013-02-17 06:28:00,21.3,8.0,29.90,West,271,6.0,9.0,58,0.00,,,0.02,weatherlink.com 1.10,2013-02-17 11:28:00,
2013-02-17 06:43:00,21.2,7.0,29.90,SW,215,2.0,9.0,54,0.00,,,0.02,weatherlink.com 1.10,2013-02-17 11:43:00,
2013-02-17 06:58:00,21.1,6.0,29.89,WSW,238,5.0,12.0,52,0.00,,,0.02,weatherlink.com 1.10,2013-02-17 11:58:00,
2013-02-17 07:13:00,21.0,6.0,29.89,SW,223,2.0,13.0,52,0.00,,,0.02,weatherlink.com 1.10,2013-02-17 12:13:00,
2013-02-17 07:28:00,21.0,5.0,29.89,NW,310,4.0,8.0,51,0.00,,,0.02,weatherlink.com 1.10,2013-02-17 12:28:00,
2013-02-17 07:43:00,21.1,6.0,29.89,West,267,5.0,9.0,52,0.00,,,0.02,weatherlink.com 1.10,2013-02-17 12:43:00,
2013-02-17 07:58:00,21.2,5.0,29.89,NW,308,3.0,8.0,50,0.00,,,0.02,weatherlink.com 1.10,2013-02-17 12:58:00,
2013-02-17 08:13:00,21.4,6.0,29.90,West,281,3.0,7.0,51,0.00,,,0.02,weatherlink.com 1.10,2013-02-17 13:13:00,
2013-02-17 08:28:00,21.6,6.0,29.89,WNW,300,4.0,7.0,51,0.00,,,0.02,weatherlink.com 1.10,2013-02-17 13:28:00,
2013-02-17 08:43:00,22.1,6.0,29.89,WSW,246,3.0,5.0,51,0.00,,,0.02,weatherlink.com 1.10,2013-02-17 13:43:00,
2013-02-17 08:58:00,22.6,6.0,29.89,West,270,3.0,7.0,49,0.00,,,0.02,weatherlink.com 1.10,2013-02-17 13:58:00,
2013-02-17 09:13:00,23.2,6.0,29.88,SSW,198,3.0,10.0,48,0.00,,,0.02,weatherlink.com 1.10,2013-02-17 14:13:00,
2013-02-17 09:28:00,23.8,4.0,29.88,SSW,194,8.0,17.0,42,0.00,,,0.02,weatherlink.com 1.10,2013-02-17 14:28:00,
2013-02-17 09:43:00,24.0,3.0,29.88,South,186,8.0,18.0,40,0.00,,,0.02,weatherlink.com 1.10,2013-02-17 14:43:00,
2013-02-17 09:58:00,24.5,3.0,29.88,WSW,246,5.0,16.0,39,0.00,,,0.00,weatherlink.com 1.10,2013-02-17 14:58:00,
2013-02-17 10:13:00,25.3,3.0,29.88,South,183,18.0,23.0,38,0.00,,,0.00,weatherlink.com 1.10,2013-02-17 15:13:00,
2013-02-17 10:28:00,26.1,2.0,29.88,West,275,6.0,23.0,35,0.00,,,0.00,weatherlink.com 1.10,2013-02-17 15:28:00,
2013-02-17 10:43:00,27.1,3.0,29.88,SW,219,9.0,20.0,36,0.00,,,0.00,weatherlink.com 1.10,2013-02-17 15:43:00,
2013-02-17 10:58:00,27.5,4.0,29.88,WNW,288,9.0,14.0,36,0.00,,,0.00,weatherlink.com 1.10,2013-02-17 15:58:00,
2013-02-17 11:13:00,28.4,4.0,29.89,SSW,200,3.0,17.0,36,0.00,,,0.00,weatherlink.com 1.10,2013-02-17 16:13:00,
2013-02-17 11:28:00,29.1,5.0,29.89,WSW,250,6.0,13.0,35,0.00,,,0.00,weatherlink.com 1.10,2013-02-17 16:28:00,
2013-02-17 11:43:00,28.2,4.0,29.90,SSW,192,8.0,17.0,35,0.00,,,0.00,weatherlink.com 1.10,2013-02-17 16:43:00,
2013-02-17 11:58:00,28.2,4.0,29.89,West,280,1.0,14.0,35,0.00,,,0.00,weatherlink.com 1.10,2013-02-17 16:58:00,
2013-02-17 12:13:00,28.6,3.0,29.90,SE,126,4.0,16.0,34,0.00,,,0.00,weatherlink.com 1.10,2013-02-17 17:13:00,
2013-02-17 12:28:00,28.2,3.0,29.90,SSW,207,13.0,18.0,34,0.00,,,0.00,weatherlink.com 1.10,2013-02-17 17:28:00,
2013-02-17 12:43:00,28.0,4.0,29.89,West,263,5.0,21.0,35,0.00,,,0.00,weatherlink.com 1.10,2013-02-17 17:43:00,
2013-02-17 12:58:00,27.7,3.0,29.90,WNW,282,4.0,17.0,34,0.00,,,0.00,weatherlink.com 1.10,2013-02-17 17:58:00,
2013-02-17 13:13:00,28.0,5.0,29.90,SW,235,9.0,20.0,37,0.00,,,0.00,weatherlink.com 1.10,2013-02-17 18:13:00,
2013-02-17 13:28:00,28.0,4.0,29.90,SSE,160,16.0,19.0,35,0.00,,,0.00,weatherlink.com 1.10,2013-02-17 18:28:00,
2013-02-17 13:43:00,27.8,3.0,29.91,SW,233,9.0,19.0,35,0.00,,,0.00,weatherlink.com 1.10,2013-02-17 18:43:00,
2013-02-17 13:58:00,27.7,2.0,29.91,SSW,200,14.0,24.0,33,0.00,,,0.00,weatherlink.com 1.10,2013-02-17 18:58:00,
2013-02-17 14:13:00,27.7,2.0,29.92,SSW,192,18.0,23.0,33,0.00,,,0.00,weatherlink.com 1.10,2013-02-17 19:13:00,
2013-02-17 14:28:00,27.8,2.0,29.92,WSW,246,15.0,16.0,33,0.00,,,0.00,weatherlink.com 1.10,2013-02-17 19:28:00,
2013-02-17 14:58:00,26.5,2.0,29.93,SW,228,13.0,20.0,35,0.00,,,0.00,weatherlink.com 1.10,2013-02-17 19:58:00,
2013-02-17 15:13:00,26.6,3.0,29.94,South,190,4.0,14.0,36,0.00,,,0.00,weatherlink.com 1.10,2013-02-17 20:13:00,
2013-02-17 15:28:00,25.7,4.0,29.95,NW,305,8.0,17.0,39,0.00,,,0.00,weatherlink.com 1.10,2013-02-17 20:28:00,
2013-02-17 15:43:00,25.5,2.0,29.95,WSW,240,5.0,17.0,37,0.00,,,0.00,weatherlink.com 1.10,2013-02-17 20:43:00,
2013-02-17 15:58:00,24.8,3.0,29.96,SSW,196,12.0,17.0,39,0.00,,,0.00,weatherlink.com 1.10,2013-02-17 20:58:00,
2013-02-17 16:14:00,24.2,4.0,29.96,SW,228,6.0,16.0,41,0.00,,,0.00,weatherlink.com 1.10,2013-02-17 21:14:00,
2013-02-17 16:29:00,23.8,3.0,29.97,NW,312,6.0,14.0,41,0.00,,,0.00,weatherlink.com 1.10,2013-02-17 21:29:00,
2013-02-17 16:44:00,23.1,3.0,29.98,NE,53,6.0,17.0,42,0.00,,,0.00,weatherlink.com 1.10,2013-02-17 21:44:00,
2013-02-17 16:59:00,22.3,3.0,29.99,SW,231,2.0,16.0,43,0.00,,,0.00,weatherlink.com 1.10,2013-02-17 21:59:00,
2013-02-17 17:14:00,21.5,3.0,30.00,East,99,5.0,19.0,44,0.00,,,0.00,weatherlink.com 1.10,2013-02-17 22:14:00,
2013-02-17 17:29:00,20.9,3.0,30.01,SSE,161,9.0,19.0,46,0.00,,,0.00,weatherlink.com 1.10,2013-02-17 22:29:00,
2013-02-17 17:44:00,20.2,2.0,30.03,SSE,159,6.0,14.0,45,0.00,,,0.00,weatherlink.com 1.10,2013-02-17 22:44:00,
2013-02-17 17:59:00,19.5,2.0,30.03,SSW,194,4.0,15.0,46,0.00,,,0.00,weatherlink.com 1.10,2013-02-17 22:59:00,
2013-02-17 18:14:00,19.2,2.0,30.05,SW,236,6.0,9.0,48,0.00,,,0.00,weatherlink.com 1.10,2013-02-17 23:14:00,
2013-02-17 18:29:00,18.9,2.0,30.06,South,191,5.0,22.0,48,0.00,,,0.00,weatherlink.com 1.10,2013-02-17 23:29:00,
2013-02-17 18:44:00,18.4,2.0,30.07,South,190,1.0,21.0,48,0.00,,,0.00,weatherlink.com 1.10,2013-02-17 23:44:00,
2013-02-17 18:59:00,18.0,2.0,30.07,SSW,199,5.0,17.0,49,0.00,,,0.00,weatherlink.com 1.10,2013-02-17 23:59:00,
2013-02-17 19:14:00,17.5,2.0,30.09,South,186,6.0,20.0,51,0.00,,,0.00,weatherlink.com 1.10,2013-02-18 00:14:00,
2013-02-17 19:29:00,17.1,2.0,30.09,WSW,249,9.0,14.0,51,0.00,,,0.00,weatherlink.com 1.10,2013-02-18 00:29:00,
2013-02-17 19:44:00,16.5,1.0,30.10,ESE,121,5.0,14.0,50,0.00,,,0.00,weatherlink.com 1.10,2013-02-18 00:44:00,
2013-02-17 19:59:00,16.1,1.0,30.11,SSE,162,12.0,18.0,51,0.00,,,0.00,weatherlink.com 1.10,2013-02-18 00:59:00,
2013-02-17 20:14:00,15.7,1.0,30.11,SSW,210,11.0,16.0,52,0.00,,,0.00,weatherlink.com 1.10,2013-02-18 01:14:00,
2013-02-17 20:29:00,15.2,1.0,30.12,WSW,244,8.0,11.0,53,0.00,,,0.00,weatherlink.com 1.10,2013-02-18 01:29:00,
2013-02-17 20:44:00,14.7,1.0,30.13,SSE,148,2.0,19.0,54,0.00,,,0.00,weatherlink.com 1.10,2013-02-18 01:44:00,
2013-02-17 20:59:00,14.4,0.0,30.14,SSW,199,6.0,22.0,54,0.00,,,0.00,weatherlink.com 1.10,2013-02-18 01:59:00,
2013-02-17 21:14:00,14.0,0.0,30.14,WSW,249,12.0,21.0,55,0.00,,,0.00,weatherlink.com 1.10,2013-02-18 02:14:00,
2013-02-17 21:29:00,13.8,0.0,30.15,WSW,251,3.0,16.0,55,0.00,,,0.00,weatherlink.com 1.10,2013-02-18 02:29:00,
2013-02-17 21:45:00,13.7,0.0,30.15,SW,230,2.0,17.0,55,0.00,,,0.00,weatherlink.com 1.10,2013-02-18 02:45:00,
2013-02-17 22:00:00,13.6,0.0,30.15,WNW,288,6.0,20.0,56,0.00,,,0.00,weatherlink.com 1.10,2013-02-18 03:00:00,
2013-02-17 22:15:00,13.5,1.0,30.16,SE,145,4.0,19.0,57,0.00,,,0.00,weatherlink.com 1.10,2013-02-18 03:15:00,
2013-02-17 22:30:00,13.6,1.0,30.16,WSW,246,4.0,15.0,57,0.00,,,0.00,weatherlink.com 1.10,2013-02-18 03:30:00,
2013-02-17 22:45:00,13.7,1.0,30.16,West,261,1.0,21.0,58,0.00,,,0.00,weatherlink.com 1.10,2013-02-18 03:45:00,
2013-02-17 23:00:00,13.8,1.0,30.15,SW,222,4.0,22.0,58,0.00,,,0.00,weatherlink.com 1.10,2013-02-18 04:00:00,
2013-02-17 23:15:00,13.9,2.0,30.16,West,273,4.0,15.0,58,0.00,,,0.00,weatherlink.com 1.10,2013-02-18 04:15:00,
2013-02-17 23:30:00,14.0,2.0,30.17,NE,34,4.0,20.0,58,0.00,,,0.00,weatherlink.com 1.10,2013-02-18 04:30:00,
2013-02-17 23:45:00,14.2,2.0,30.17,West,280,2.0,18.0,58,0.00,,,0.00,weatherlink.com 1.10,2013-02-18 04:45:00,